Port Isabel, TX

11:04 PM CST on February 19, 2017 (GMT -0600)
Port Isabel-Cameron County

Weather History for KPIL - July, 2013

Change the Weather History Date:

Friday, July 26, 2013

  Actual Average (KBRO) Record (KBRO)
Temperature  
Mean Temperature 87 °F -  
Max Temperature 95 °F 93 °F 101 °F (1954)
Min Temperature 79 °F 74 °F 65 °F (1887)
Cooling Degree Days 22    
Growing Degree Days 37 (Base 50)    
Moisture  
Dew Point 75 °F    
Average Humidity 72    
Maximum Humidity 94    
Minimum Humidity 49    
Precipitation  
Precipitation 0.00 in - - ()
Sea Level Pressure  
Sea Level Pressure 29.98 in    
Wind  
Wind Speed 13 mph (SSE)    
Max Wind Speed 23 mph    
Max Gust Speed 32 mph    
Visibility 9 miles    
Events      
Averages and records for this station are not official NWS values.
T = Trace of Precipitation, MM = Missing Value Source: NWS Daily Summary

Daily Weather History Graph

Daily Weather History Graph

Search for Another Location

Airport or City:

Trip Planner

Search our weather history database for the weather conditions in past years. The results will help you decide how hot, cold, wet, or windy it might be!

Date:

Astronomy

Jul. 26, 2013 Rise Set
Actual Time 6:52 AM CDT 8:19 PM CDT
Civil Twilight 6:27 AM CDT 8:44 PM CDT
Nautical Twilight 5:57 AM CDT 9:14 PM CDT
Astronomical Twilight 5:25 AM CDT 9:45 PM CDT
Moon 11:09 PM CDT (7/26) 10:57 AM CDT (7/26)
Length of Visible Light 14h 17m
Length of Day
13h 27m
Waning Gibbous, 80% of the Moon is Illuminated
Jul 26
Waning Gibbous
Jul 29
Last Quarter
Aug 6
New
Aug 14
First Quarter
Aug 20
Full

Hourly Weather History & Observations

Time (CDT) Temp. Heat Index Dew Point Humidity Pressure Visibility Wind Dir Wind Speed Gust Speed Precip Events Conditions
12:53 AM 82.0 °F 90.2 °F 77.0 °F 85% 30.03 in 9.0 mi SSE 11.5 mph - N/A   Partly Cloudy
1:53 AM 81.0 °F 87.3 °F 75.9 °F 85% 30.02 in 9.0 mi SSE 10.4 mph - N/A   Clear
2:53 AM 81.0 °F 87.3 °F 75.9 °F 85% 30.01 in 9.0 mi SSE 8.1 mph - N/A   Clear
3:53 AM 80.1 °F 85.4 °F 75.9 °F 87% 29.99 in 9.0 mi South 6.9 mph - N/A   Clear
4:53 AM 80.1 °F 85.4 °F 75.9 °F 87% 29.99 in 8.0 mi South 4.6 mph - N/A   Clear
5:53 AM 80.1 °F 85.8 °F 77.0 °F 90% 29.99 in 8.0 mi SSE 6.9 mph - N/A   Partly Cloudy
6:53 AM 79.0 °F - 77.0 °F 94% 30.00 in 6.0 mi South 4.6 mph - N/A   Clear
7:53 AM 81.0 °F 88.6 °F 78.1 °F 91% 30.00 in 7.0 mi South 8.1 mph - N/A   Clear
8:53 AM 84.0 °F 94.8 °F 78.1 °F 82% 30.01 in 7.0 mi South 13.8 mph - N/A   Scattered Clouds
9:53 AM 88.0 °F 98.5 °F 75.9 °F 67% 30.01 in 8.0 mi South 18.4 mph 23.0 mph N/A   Scattered Clouds
10:53 AM 90.0 °F 97.9 °F 73.0 °F 57% 30.01 in 9.0 mi South 13.8 mph 25.3 mph N/A   Partly Cloudy
11:53 AM 91.9 °F 99.5 °F 72.0 °F 52% 30.01 in 9.0 mi South 15.0 mph 27.6 mph N/A   Clear
12:53 PM 93.9 °F 103.4 °F 73.0 °F 51% 29.99 in 9.0 mi SSE 19.6 mph 24.2 mph N/A   Partly Cloudy
1:53 PM 95.0 °F 104.5 °F 73.0 °F 49% 29.98 in 8.0 mi SSE 19.6 mph 29.9 mph N/A   Clear
2:53 PM 93.9 °F 104.0 °F 73.9 °F 52% 29.96 in 9.0 mi SSE 18.4 mph 32.2 mph N/A   Clear
3:53 PM 93.0 °F 101.9 °F 73.0 °F 52% 29.96 in 9.0 mi SSE 21.9 mph 31.1 mph N/A   Clear
4:53 PM 91.9 °F 100.7 °F 73.0 °F 54% 29.94 in 8.0 mi SSE 21.9 mph 32.2 mph N/A   Clear
5:53 PM 90.0 °F 99.0 °F 73.9 °F 59% 29.95 in 9.0 mi SSE 23.0 mph 31.1 mph N/A   Clear
6:53 PM 87.1 °F 94.5 °F 73.0 °F 63% 29.94 in 8.0 mi SSE 18.4 mph 29.9 mph N/A   Clear
7:53 PM 84.9 °F 92.1 °F 73.9 °F 69% 29.93 in 9.0 mi SSE 23.0 mph 31.1 mph N/A   Clear
8:53 PM 82.9 °F 90.2 °F 75.0 °F 77% 29.93 in 10.0 mi SSE 18.4 mph 27.6 mph N/A   Clear
9:53 PM 82.9 °F 90.2 °F 75.0 °F 77% 29.94 in 10.0 mi South 17.3 mph 25.3 mph N/A   Clear
10:53 PM 82.0 °F 89.4 °F 75.9 °F 82% 29.96 in 10.0 mi South 16.1 mph 23.0 mph N/A   Clear
11:53 PM 82.0 °F 89.4 °F 75.9 °F 82% 29.96 in 9.0 mi South 13.8 mph - N/A   Clear